UAL671 KDEN-KSFO

Flight info

Callsign UAL671
Flight time 2h 2m
Altitude 36000
Route COORZ7 VOAXA Q136 OAL INYOE DYAMD5
Aircraft B738/M-SDE2E3FGHIRWXY/LB1

Departure

Time 2026-05-06 20:20
Airport Denver International Airport (KDEN)

Arrival

Time 2026-05-06 22:22
Airport San Francisco International Airport (KSFO)
Time Latitude Longitude Altitude Speed Heading
2026-05-06 19:52 39.85334 -104.67697 5443 ft 0 kts
2026-05-06 20:05 39.85333 -104.67697 5443 ft 1 kts
2026-05-06 20:06 39.85318 -104.67697 5443 ft 2 kts
2026-05-06 20:06 39.85302 -104.67697 5443 ft 2 kts
2026-05-06 20:06 39.85287 -104.67697 5443 ft 2 kts
2026-05-06 20:06 39.85281 -104.67694 5443 ft 1 kts 285°
2026-05-06 20:07 39.85278 -104.67681 5443 ft 1 kts 239°
2026-05-06 20:07 39.85280 -104.67673 5443 ft 1 kts 308°
2026-05-06 20:07 39.85279 -104.67672 5443 ft 0 kts 308°
2026-05-06 20:11 39.85281 -104.67677 5443 ft 1 kts 294°
2026-05-06 20:11 39.85281 -104.67690 5443 ft 0 kts 269°
2026-05-06 20:11 39.85281 -104.67691 5443 ft 0 kts 269°
2026-05-06 20:12 39.85281 -104.67711 5443 ft 4 kts 268°
2026-05-06 20:12 39.85280 -104.67765 5443 ft 8 kts 269°
2026-05-06 20:12 39.85280 -104.67842 5443 ft 9 kts 271°
2026-05-06 20:12 39.85281 -104.67942 5443 ft 13 kts 271°
2026-05-06 20:13 39.85281 -104.68052 5443 ft 11 kts 269°
2026-05-06 20:13 39.85281 -104.68126 5443 ft 9 kts 270°
2026-05-06 20:13 39.85260 -104.68191 5443 ft 6 kts 224°
2026-05-06 20:13 39.85232 -104.68249 5443 ft 8 kts 249°
2026-05-06 20:14 39.85211 -104.68334 5443 ft 12 kts 256°
2026-05-06 20:14 39.85199 -104.68443 5443 ft 11 kts 269°
2026-05-06 20:14 39.85199 -104.68559 5443 ft 15 kts 270°
2026-05-06 20:14 39.85200 -104.68708 5443 ft 18 kts 270°
2026-05-06 20:15 39.85201 -104.68868 5443 ft 14 kts 270°
2026-05-06 20:15 39.85201 -104.68994 5443 ft 15 kts 270°
2026-05-06 20:15 39.85201 -104.69117 5443 ft 8 kts 270°
2026-05-06 20:15 39.85202 -104.69193 5443 ft 9 kts 270°
2026-05-06 20:16 39.85202 -104.69289 5443 ft 12 kts 270°
2026-05-06 20:16 39.85203 -104.69401 5443 ft 13 kts 270°
2026-05-06 20:16 39.85203 -104.69513 5443 ft 6 kts 269°
2026-05-06 20:16 39.85203 -104.69562 5443 ft 7 kts 269°
2026-05-06 20:17 39.85207 -104.69631 5443 ft 7 kts 299°
2026-05-06 20:17 39.85244 -104.69655 5443 ft 4 kts 352°
2026-05-06 20:17 39.85246 -104.69655 5443 ft 0 kts 353°
2026-05-06 20:18 39.85253 -104.69656 5443 ft 11 kts 354°
2026-05-06 20:18 39.85680 -104.69661 5444 ft 107 kts
2026-05-06 20:19 39.86686 -104.69651 5444 ft 179 kts
2026-05-06 20:19 39.88081 -104.69640 5492 ft 217 kts 360°
2026-05-06 20:19 39.89697 -104.69626 5747 ft 240 kts 360°
2026-05-06 20:19 39.91438 -104.69613 5789 ft 261 kts 360°
2026-05-06 20:20 39.93201 -104.69601 6209 ft 250 kts 360°
2026-05-06 20:20 39.95006 -104.69595 6754 ft 270 kts 356°
2026-05-06 20:20 39.96232 -104.69987 6963 ft 265 kts 335°
2026-05-06 20:20 39.98007 -104.72047 7936 ft 269 kts 302°
2026-05-06 20:21 39.98690 -104.74387 8063 ft 287 kts 281°
2026-05-06 20:21 39.98568 -104.76979 8176 ft 285 kts 255°
2026-05-06 20:21 39.97625 -104.79223 8423 ft 286 kts 230°
2026-05-06 20:21 39.96032 -104.80788 8701 ft 289 kts 208°
2026-05-06 20:22 39.94808 -104.81452 8947 ft 290 kts 201°
2026-05-06 20:22 39.92863 -104.82260 9303 ft 294 kts 198°
2026-05-06 20:22 39.90256 -104.83319 9777 ft 296 kts 200°
2026-05-06 20:22 39.89006 -104.84032 9999 ft 295 kts 213°
2026-05-06 20:23 39.87510 -104.85814 10358 ft 292 kts 235°
2026-05-06 20:23 39.86488 -104.88117 10592 ft 296 kts 248°
2026-05-06 20:23 39.85800 -104.90640 10680 ft 298 kts 256°
2026-05-06 20:23 39.85349 -104.93279 10715 ft 297 kts 262°
2026-05-06 20:24 39.85073 -104.95918 10985 ft 291 kts 265°
2026-05-06 20:24 39.84906 -104.98526 11259 ft 291 kts 268°
2026-05-06 20:24 39.84811 -105.01138 11534 ft 292 kts 269°
2026-05-06 20:24 39.84766 -105.03783 11809 ft 294 kts 270°
2026-05-06 20:25 39.84757 -105.06434 12084 ft 295 kts 271°
2026-05-06 20:25 39.84771 -105.09109 12361 ft 296 kts 272°
2026-05-06 20:25 39.84803 -105.11794 12637 ft 297 kts 272°
2026-05-06 20:25 39.84846 -105.14488 12913 ft 298 kts 272°
2026-05-06 20:26 39.84896 -105.17178 13188 ft 299 kts 272°
2026-05-06 20:26 39.84951 -105.19886 13464 ft 300 kts 272°
2026-05-06 20:26 39.85009 -105.22598 13740 ft 301 kts 272°
2026-05-06 20:26 39.85068 -105.25293 14013 ft 302 kts 272°
2026-05-06 20:27 39.85129 -105.28028 14289 ft 302 kts 272°
2026-05-06 20:27 39.85191 -105.30762 14564 ft 303 kts 272°
2026-05-06 20:27 39.85253 -105.33505 14839 ft 304 kts 272°
2026-05-06 20:27 39.85315 -105.36270 15116 ft 305 kts 272°
2026-05-06 20:28 39.85376 -105.39033 15391 ft 306 kts 272°
2026-05-06 20:28 39.85438 -105.41814 15667 ft 307 kts 272°
2026-05-06 20:28 39.85499 -105.44589 15942 ft 308 kts 272°
2026-05-06 20:28 39.85560 -105.47385 16218 ft 309 kts 272°
2026-05-06 20:29 39.85619 -105.50157 16491 ft 310 kts 272°
2026-05-06 20:29 39.85679 -105.52957 16765 ft 311 kts 272°
2026-05-06 20:29 39.85738 -105.55785 17042 ft 312 kts 272°
2026-05-06 20:29 39.85797 -105.58618 17318 ft 313 kts 272°
2026-05-06 20:30 39.85855 -105.61458 17593 ft 315 kts 272°
2026-05-06 20:30 39.85953 -105.67168 18145 ft 317 kts 270°
2026-05-06 20:30 39.85897 -105.70033 18422 ft 318 kts 268°
2026-05-06 20:31 39.85770 -105.72914 18699 ft 319 kts 266°
2026-05-06 20:31 39.85597 -105.75802 18975 ft 320 kts 265°
2026-05-06 20:31 39.85399 -105.78649 19246 ft 321 kts 265°
2026-05-06 20:31 39.85180 -105.81549 19522 ft 323 kts 264°
2026-05-06 20:32 39.84948 -105.84466 19799 ft 324 kts 264°
2026-05-06 20:32 39.84709 -105.87382 20074 ft 325 kts 264°
2026-05-06 20:32 39.84463 -105.90308 20349 ft 326 kts 264°
2026-05-06 20:32 39.84213 -105.93248 20625 ft 327 kts 264°
2026-05-06 20:33 39.83962 -105.96161 20897 ft 329 kts 264°
2026-05-06 20:33 39.83706 -105.99122 21173 ft 330 kts 264°
2026-05-06 20:33 39.83445 -106.02110 21451 ft 340 kts 264°
2026-05-06 20:33 39.83169 -106.05278 21739 ft 364 kts 264°
2026-05-06 20:34 39.82873 -106.08649 22029 ft 387 kts 264°
2026-05-06 20:34 39.82560 -106.12214 22317 ft 407 kts 264°
2026-05-06 20:34 39.82229 -106.15957 22603 ft 424 kts 264°
2026-05-06 20:34 39.81884 -106.19844 22887 ft 440 kts 264°
2026-05-06 20:35 39.81527 -106.23844 23169 ft 453 kts 263°
2026-05-06 20:35 39.81158 -106.27961 23450 ft 464 kts 263°
2026-05-06 20:35 39.80780 -106.32164 23730 ft 473 kts 263°
2026-05-06 20:35 39.80396 -106.36404 24006 ft 480 kts 263°
2026-05-06 20:36 39.80003 -106.40732 24283 ft 487 kts 263°
2026-05-06 20:36 39.79600 -106.45127 24561 ft 492 kts 263°
2026-05-06 20:36 39.79208 -106.49358 24792 ft 432 kts 263°
2026-05-06 20:36 39.78826 -106.53229 25084 ft 436 kts 263°
2026-05-06 20:37 39.78421 -106.57173 25441 ft 445 kts 263°
2026-05-06 20:37 39.78000 -106.61184 25815 ft 452 kts 262°
2026-05-06 20:37 39.77564 -106.65263 26193 ft 458 kts 262°
2026-05-06 20:37 39.77119 -106.69389 26571 ft 463 kts 262°
2026-05-06 20:38 39.76665 -106.73559 26949 ft 467 kts 262°
2026-05-06 20:38 39.76213 -106.77685 27320 ft 470 kts 262°
2026-05-06 20:38 39.75743 -106.81956 27701 ft 473 kts 262°
2026-05-06 20:38 39.75280 -106.86145 28072 ft 474 kts 262°
2026-05-06 20:39 39.74810 -106.90384 28447 ft 476 kts 262°
2026-05-06 20:39 39.74334 -106.94652 28823 ft 477 kts 262°
2026-05-06 20:39 39.73859 -106.98907 29198 ft 477 kts 262°
2026-05-06 20:39 39.73381 -107.03170 29572 ft 477 kts 262°
2026-05-06 20:40 39.72902 -107.07434 29947 ft 477 kts 262°
2026-05-06 20:40 39.72420 -107.11702 30322 ft 476 kts 262°
2026-05-06 20:40 39.71939 -107.15959 30697 ft 476 kts 262°
2026-05-06 20:40 39.71463 -107.20147 31066 ft 475 kts 262°
2026-05-06 20:41 39.70981 -107.24384 31441 ft 474 kts 262°
2026-05-06 20:41 39.70497 -107.28612 31815 ft 472 kts 262°
2026-05-06 20:41 39.70015 -107.32817 32189 ft 471 kts 262°
2026-05-06 20:41 39.69532 -107.37016 32563 ft 469 kts 262°
2026-05-06 20:42 39.69051 -107.41187 32936 ft 467 kts 262°
2026-05-06 20:42 39.68568 -107.45361 33311 ft 466 kts 262°
2026-05-06 20:42 39.68087 -107.49507 33684 ft 464 kts 262°
2026-05-06 20:42 39.67605 -107.53643 34058 ft 462 kts 262°
2026-05-06 20:43 39.67126 -107.57741 34431 ft 460 kts 262°
2026-05-06 20:43 39.66646 -107.61837 34805 ft 457 kts 262°
2026-05-06 20:43 39.66174 -107.65843 35172 ft 455 kts 262°
2026-05-06 20:43 39.65691 -107.69941 35550 ft 453 kts 262°
2026-05-06 20:44 39.65221 -107.73917 35825 ft 453 kts 262°
2026-05-06 20:44 39.64740 -107.77970 35943 ft 456 kts 262°
2026-05-06 20:44 39.64255 -107.82045 35999 ft 460 kts 262°
2026-05-06 20:45 39.63263 -107.90348 35999 ft 470 kts 262°
2026-05-06 20:45 39.62255 -107.98737 35997 ft 477 kts 261°
2026-05-06 20:46 39.61218 -108.07297 35997 ft 483 kts 261°
2026-05-06 20:46 39.60165 -108.15939 35996 ft 487 kts 261°
2026-05-06 20:47 39.59096 -108.24636 35996 ft 491 kts 261°
2026-05-06 20:47 39.58016 -108.33402 35996 ft 493 kts 261°
2026-05-06 20:48 39.56947 -108.42021 35996 ft 489 kts 261°
2026-05-06 20:48 39.55858 -108.50753 35996 ft 492 kts 261°
2026-05-06 20:49 39.54758 -108.59515 35996 ft 494 kts 261°
2026-05-06 20:49 39.53646 -108.68313 35996 ft 496 kts 261°
2026-05-06 20:50 39.52523 -108.77133 35996 ft 497 kts 261°
2026-05-06 20:50 39.51399 -108.85910 35996 ft 498 kts 261°
2026-05-06 20:51 39.50259 -108.94755 35996 ft 498 kts 261°
2026-05-06 20:51 39.49110 -109.03614 35996 ft 499 kts 261°
2026-05-06 20:52 39.47952 -109.12481 35996 ft 499 kts 261°
2026-05-06 20:52 39.46791 -109.21324 35996 ft 500 kts 261°
2026-05-06 20:53 39.45617 -109.30199 35996 ft 500 kts 261°
2026-05-06 20:53 39.44447 -109.38997 35996 ft 500 kts 261°
2026-05-06 20:54 39.43262 -109.47855 35996 ft 500 kts 261°
2026-05-06 20:54 39.42678 -109.52200 35977 ft 462 kts 261°
2026-05-06 20:54 39.42127 -109.56269 35995 ft 463 kts 261°
2026-05-06 20:55 39.41003 -109.64570 35997 ft 472 kts 261°
2026-05-06 20:55 39.39856 -109.72999 35997 ft 479 kts 260°
2026-05-06 20:56 39.38695 -109.81482 35997 ft 485 kts 260°
2026-05-06 20:56 39.37511 -109.90078 35996 ft 489 kts 260°
2026-05-06 20:57 39.36322 -109.98773 35996 ft 492 kts 261°
2026-05-06 20:57 39.35165 -110.07357 35981 ft 455 kts 261°
2026-05-06 20:58 39.34071 -110.15498 35998 ft 465 kts 261°
2026-05-06 20:58 39.32954 -110.23799 35997 ft 472 kts 261°
2026-05-06 20:59 39.31827 -110.32127 35996 ft 476 kts 261°
2026-05-06 20:59 39.30680 -110.40549 35996 ft 477 kts 260°
2026-05-06 21:00 39.29525 -110.48977 35996 ft 477 kts 260°
2026-05-06 21:00 39.28366 -110.57378 35996 ft 476 kts 260°
2026-05-06 21:01 39.27196 -110.65804 35996 ft 476 kts 260°
2026-05-06 21:01 39.26029 -110.74157 35996 ft 476 kts 260°
2026-05-06 21:02 39.24852 -110.82539 35996 ft 475 kts 260°
2026-05-06 21:02 39.23665 -110.90941 35996 ft 475 kts 260°
2026-05-06 21:03 39.22478 -110.99318 35996 ft 475 kts 260°
2026-05-06 21:03 39.21291 -111.07656 35996 ft 475 kts 260°
2026-05-06 21:04 39.20092 -111.16033 35996 ft 475 kts 260°
2026-05-06 21:04 39.18886 -111.24414 35996 ft 475 kts 260°
2026-05-06 21:05 39.17673 -111.32798 35996 ft 475 kts 260°
2026-05-06 21:05 39.16456 -111.41160 35996 ft 475 kts 260°
2026-05-06 21:06 39.15232 -111.49528 35996 ft 475 kts 260°
2026-05-06 21:06 39.14008 -111.57845 35996 ft 475 kts 259°
2026-05-06 21:07 39.12772 -111.66205 35996 ft 475 kts 259°
2026-05-06 21:07 39.11527 -111.74577 35996 ft 475 kts 259°
2026-05-06 21:08 39.10277 -111.82942 35996 ft 475 kts 259°
2026-05-06 21:08 39.09023 -111.91296 35996 ft 475 kts 259°
2026-05-06 21:09 39.07770 -111.99591 35996 ft 475 kts 259°
2026-05-06 21:09 39.06504 -112.07932 35996 ft 475 kts 259°
2026-05-06 21:10 39.05231 -112.16281 35996 ft 475 kts 259°
2026-05-06 21:10 39.03952 -112.24619 35996 ft 475 kts 259°
2026-05-06 21:11 39.02672 -112.32922 35996 ft 475 kts 259°
2026-05-06 21:11 39.01382 -112.41250 35996 ft 475 kts 259°
2026-05-06 21:12 39.00086 -112.49587 35996 ft 475 kts 259°
2026-05-06 21:12 38.98784 -112.57921 35996 ft 475 kts 259°
2026-05-06 21:13 38.97483 -112.66206 35996 ft 475 kts 259°
2026-05-06 21:13 38.96162 -112.74580 35996 ft 475 kts 259°
2026-05-06 21:14 38.94849 -112.82852 35996 ft 475 kts 259°
2026-05-06 21:14 38.93522 -112.91174 35996 ft 475 kts 259°
2026-05-06 21:15 38.92189 -112.99495 35996 ft 476 kts 259°
2026-05-06 21:15 38.90861 -113.07742 35996 ft 476 kts 259°
2026-05-06 21:16 38.89516 -113.16057 35996 ft 476 kts 259°
2026-05-06 21:16 38.88167 -113.24357 35996 ft 476 kts 259°
2026-05-06 21:17 38.86810 -113.32665 35996 ft 476 kts 258°
2026-05-06 21:17 38.85454 -113.40924 35996 ft 476 kts 258°
2026-05-06 21:18 38.84087 -113.49214 35996 ft 476 kts 258°
2026-05-06 21:18 38.82712 -113.57509 35996 ft 476 kts 258°
2026-05-06 21:19 38.81331 -113.65805 35996 ft 476 kts 258°
2026-05-06 21:19 38.79946 -113.74082 35996 ft 476 kts 258°
2026-05-06 21:20 38.78560 -113.82329 35996 ft 476 kts 258°
2026-05-06 21:20 38.77163 -113.90608 35996 ft 476 kts 258°
2026-05-06 21:21 38.75761 -113.98886 35996 ft 476 kts 258°
2026-05-06 21:21 38.74361 -114.07119 35996 ft 476 kts 258°
2026-05-06 21:22 38.72947 -114.15388 35996 ft 476 kts 258°
2026-05-06 21:22 38.71525 -114.23666 35996 ft 476 kts 258°
2026-05-06 21:23 38.70108 -114.31875 35996 ft 476 kts 258°
2026-05-06 21:23 38.68670 -114.40170 35996 ft 476 kts 258°
2026-05-06 21:24 38.67227 -114.48457 35996 ft 476 kts 258°
2026-05-06 21:24 38.65792 -114.56656 35996 ft 476 kts 258°
2026-05-06 21:25 38.64341 -114.64911 35996 ft 476 kts 258°
2026-05-06 21:25 38.62884 -114.73168 35996 ft 476 kts 258°
2026-05-06 21:26 38.61422 -114.81410 35996 ft 476 kts 258°
2026-05-06 21:26 38.59963 -114.89600 35996 ft 476 kts 258°
2026-05-06 21:27 38.58489 -114.97839 35996 ft 476 kts 258°
2026-05-06 21:27 38.57010 -115.06070 35996 ft 476 kts 257°
2026-05-06 21:28 38.55523 -115.14315 35996 ft 476 kts 257°
2026-05-06 21:28 38.54034 -115.22538 35996 ft 476 kts 257°
2026-05-06 21:29 38.52549 -115.30709 35996 ft 476 kts 257°
2026-05-06 21:29 38.51044 -115.38951 35996 ft 476 kts 257°
2026-05-06 21:30 38.49537 -115.47164 35996 ft 476 kts 257°
2026-05-06 21:30 38.48025 -115.55373 35996 ft 476 kts 257°
2026-05-06 21:31 38.46512 -115.63546 35996 ft 476 kts 257°
2026-05-06 21:31 38.44990 -115.71739 35996 ft 476 kts 257°
2026-05-06 21:32 38.43458 -115.79950 35996 ft 476 kts 257°
2026-05-06 21:32 38.41148 -115.92263 35996 ft 476 kts 257°
2026-05-06 21:33 38.39611 -116.00411 35996 ft 476 kts 257°
2026-05-06 21:33 38.38060 -116.08603 35996 ft 476 kts 257°
2026-05-06 21:34 38.36503 -116.16787 35996 ft 476 kts 257°
2026-05-06 21:34 38.34938 -116.24980 35996 ft 476 kts 257°
2026-05-06 21:35 38.33326 -116.33151 35996 ft 476 kts 256°
2026-05-06 21:35 38.31594 -116.41235 35996 ft 476 kts 255°
2026-05-06 21:36 38.29790 -116.49343 35996 ft 476 kts 255°
2026-05-06 21:36 38.27960 -116.57437 35996 ft 476 kts 255°
2026-05-06 21:37 38.26118 -116.65532 35996 ft 476 kts 255°
2026-05-06 21:37 38.24271 -116.73619 35996 ft 476 kts 255°
2026-05-06 21:38 38.22435 -116.81641 35996 ft 476 kts 255°
2026-05-06 21:38 38.20582 -116.89724 35996 ft 476 kts 255°
2026-05-06 21:39 38.18726 -116.97797 35996 ft 476 kts 254°
2026-05-06 21:39 38.16866 -117.05868 35996 ft 476 kts 254°
2026-05-06 21:40 38.15013 -117.13882 35996 ft 476 kts 254°
2026-05-06 21:40 38.13140 -117.21951 35996 ft 476 kts 254°
2026-05-06 21:41 38.11272 -117.30017 35996 ft 476 kts 254°
2026-05-06 21:41 38.09409 -117.38077 35996 ft 476 kts 254°
2026-05-06 21:42 38.07544 -117.46131 35996 ft 476 kts 254°
2026-05-06 21:42 38.05684 -117.54143 35996 ft 476 kts 254°
2026-05-06 21:43 38.03807 -117.62199 35996 ft 476 kts 254°
2026-05-06 21:43 38.01928 -117.70231 35996 ft 476 kts 254°
2026-05-06 21:44 38.00310 -117.78382 35996 ft 475 kts 259°
2026-05-06 21:44 37.99200 -117.86580 35996 ft 475 kts 262°
2026-05-06 21:45 37.98289 -117.94849 35996 ft 475 kts 263°
2026-05-06 21:45 37.97439 -118.03184 35996 ft 475 kts 263°
2026-05-06 21:46 37.96603 -118.11475 35996 ft 475 kts 263°
2026-05-06 21:46 37.95758 -118.19732 35996 ft 475 kts 263°
2026-05-06 21:47 37.94894 -118.28003 35996 ft 475 kts 263°
2026-05-06 21:47 37.94007 -118.36336 35996 ft 475 kts 263°
2026-05-06 21:48 37.93110 -118.44623 35996 ft 475 kts 262°
2026-05-06 21:48 37.92202 -118.52904 35996 ft 475 kts 262°
2026-05-06 21:49 37.91290 -118.61134 35996 ft 475 kts 262°
2026-05-06 21:49 37.90363 -118.69420 35996 ft 475 kts 262°
2026-05-06 21:50 37.89430 -118.77711 35996 ft 475 kts 262°
2026-05-06 21:50 37.88495 -118.85995 35996 ft 475 kts 262°
2026-05-06 21:51 37.87560 -118.94225 35996 ft 475 kts 262°
2026-05-06 21:51 37.86613 -119.02506 35996 ft 475 kts 262°
2026-05-06 21:52 37.85978 -119.08027 35996 ft 475 kts 262°
2026-05-06 21:52 37.84702 -119.19044 35996 ft 475 kts 262°
2026-05-06 21:53 37.83736 -119.27327 35996 ft 475 kts 262°
2026-05-06 21:53 37.82774 -119.35520 35996 ft 475 kts 262°
2026-05-06 21:54 37.81797 -119.43788 35996 ft 475 kts 262°
2026-05-06 21:54 37.80813 -119.52062 35996 ft 475 kts 262°
2026-05-06 21:55 37.79824 -119.60331 35996 ft 475 kts 262°
2026-05-06 21:55 37.78838 -119.68519 35996 ft 475 kts 262°
2026-05-06 21:56 37.77837 -119.76782 35996 ft 475 kts 262°
2026-05-06 21:56 37.76831 -119.85039 35896 ft 477 kts 262°
2026-05-06 21:57 37.76319 -119.89223 35411 ft 482 kts 262°
2026-05-06 21:57 37.75807 -119.93394 34915 ft 480 kts 262°
2026-05-06 21:57 37.75304 -119.97482 34423 ft 477 kts 262°
2026-05-06 21:57 37.74794 -120.01605 33923 ft 473 kts 261°
2026-05-06 21:58 37.74286 -120.05702 33421 ft 469 kts 261°
2026-05-06 21:58 37.73785 -120.09736 32923 ft 465 kts 261°
2026-05-06 21:58 37.73282 -120.13768 32421 ft 461 kts 261°
2026-05-06 21:58 37.72784 -120.17747 31922 ft 457 kts 261°
2026-05-06 21:59 37.72288 -120.21696 31423 ft 453 kts 261°
2026-05-06 21:59 37.71798 -120.25593 30924 ft 449 kts 261°
2026-05-06 21:59 37.71312 -120.29444 30427 ft 445 kts 261°
2026-05-06 21:59 37.70826 -120.33285 29927 ft 442 kts 261°
2026-05-06 22:00 37.70347 -120.37094 29427 ft 438 kts 261°
2026-05-06 22:00 37.69882 -120.40887 28925 ft 435 kts 262°
2026-05-06 22:00 37.69434 -120.44630 28426 ft 431 kts 262°
2026-05-06 22:00 37.68993 -120.48358 27926 ft 428 kts 262°
2026-05-06 22:01 37.68560 -120.52055 27447 ft 424 kts 262°
2026-05-06 22:01 37.68133 -120.55707 26972 ft 420 kts 262°
2026-05-06 22:01 37.67708 -120.59353 26495 ft 417 kts 262°
2026-05-06 22:01 37.67286 -120.62963 26018 ft 413 kts 262°
2026-05-06 22:02 37.66870 -120.66518 25543 ft 406 kts 262°
2026-05-06 22:02 37.66461 -120.69989 25058 ft 391 kts 262°
2026-05-06 22:02 37.66072 -120.73274 24585 ft 379 kts 262°
2026-05-06 22:02 37.65685 -120.76515 24106 ft 370 kts 262°
2026-05-06 22:03 37.65304 -120.79705 23627 ft 363 kts 262°
2026-05-06 22:03 37.64928 -120.82829 23150 ft 358 kts 262°
2026-05-06 22:03 37.64557 -120.85909 22677 ft 354 kts 262°
2026-05-06 22:03 37.64188 -120.88963 22213 ft 350 kts 262°
2026-05-06 22:04 37.63819 -120.91994 21758 ft 347 kts 262°
2026-05-06 22:04 37.63444 -120.94978 21307 ft 344 kts 261°
2026-05-06 22:04 37.63067 -120.97911 20861 ft 341 kts 261°
2026-05-06 22:04 37.62685 -121.00844 20412 ft 338 kts 261°
2026-05-06 22:05 37.62302 -121.03755 19963 ft 336 kts 261°
2026-05-06 22:05 37.61916 -121.06658 19545 ft 333 kts 261°
2026-05-06 22:05 37.61534 -121.09524 19143 ft 330 kts 261°
2026-05-06 22:05 37.61155 -121.12352 18745 ft 328 kts 261°
2026-05-06 22:06 37.60772 -121.15201 18342 ft 327 kts 261°
2026-05-06 22:06 37.60393 -121.18015 17942 ft 325 kts 261°
2026-05-06 22:06 37.60016 -121.20813 17542 ft 323 kts 261°
2026-05-06 22:06 37.59665 -121.23494 17157 ft 322 kts 262°
2026-05-06 22:07 37.59319 -121.26264 16757 ft 320 kts 262°
2026-05-06 22:07 37.58987 -121.28997 16362 ft 318 kts 262°
2026-05-06 22:07 37.58659 -121.31758 15960 ft 317 kts 263°
2026-05-06 22:07 37.58339 -121.34487 15561 ft 315 kts 263°
2026-05-06 22:08 37.58020 -121.37225 15159 ft 314 kts 263°
2026-05-06 22:08 37.57705 -121.39940 14758 ft 312 kts 263°
2026-05-06 22:08 37.57391 -121.42643 14358 ft 311 kts 263°
2026-05-06 22:08 37.57081 -121.45319 13959 ft 309 kts 263°
2026-05-06 22:09 37.56770 -121.47998 13558 ft 308 kts 263°
2026-05-06 22:09 37.56464 -121.50628 13162 ft 306 kts 263°
2026-05-06 22:09 37.56148 -121.53344 12752 ft 305 kts 263°
2026-05-06 22:09 37.55925 -121.55256 12462 ft 304 kts 263°
2026-05-06 22:10 37.55523 -121.58532 11962 ft 302 kts 262°
2026-05-06 22:10 37.55115 -121.61144 11559 ft 301 kts 259°
2026-05-06 22:10 37.54643 -121.63711 11159 ft 300 kts 258°
2026-05-06 22:10 37.54124 -121.66241 10760 ft 299 kts 256°
2026-05-06 22:11 37.53573 -121.68742 10363 ft 298 kts 256°
2026-05-06 22:11 37.52998 -121.71239 9963 ft 297 kts 255°
2026-05-06 22:11 37.52400 -121.73762 9557 ft 295 kts 255°
2026-05-06 22:11 37.51817 -121.76188 9164 ft 294 kts 255°
2026-05-06 22:12 37.51224 -121.78648 8768 ft 293 kts 255°
2026-05-06 22:12 37.50632 -121.81101 8367 ft 291 kts 255°
2026-05-06 22:12 37.50069 -121.83530 7963 ft 287 kts 258°
2026-05-06 22:12 37.49873 -121.85950 7565 ft 273 kts 271°
2026-05-06 22:13 37.49786 -121.88278 7166 ft 263 kts 266°
2026-05-06 22:13 37.49621 -121.90528 6758 ft 256 kts 266°
2026-05-06 22:13 37.49497 -121.92731 6355 ft 249 kts 269°
2026-05-06 22:13 37.49475 -121.94874 5983 ft 241 kts 272°
2026-05-06 22:14 37.49559 -121.96917 5693 ft 227 kts 275°
2026-05-06 22:14 37.49688 -121.98853 5431 ft 217 kts 276°
2026-05-06 22:14 37.49824 -122.00698 5172 ft 203 kts 276°
2026-05-06 22:14 37.49939 -122.02397 4928 ft 185 kts 276°
2026-05-06 22:15 37.50029 -122.03919 4672 ft 165 kts 275°
2026-05-06 22:15 37.50106 -122.05299 4416 ft 156 kts 275°
2026-05-06 22:15 37.50184 -122.06656 4163 ft 156 kts 275°
2026-05-06 22:15 37.50262 -122.08021 3916 ft 156 kts 275°
2026-05-06 22:16 37.50403 -122.09370 3657 ft 157 kts 285°
2026-05-06 22:16 37.50641 -122.10710 3427 ft 157 kts 280°
2026-05-06 22:16 37.50790 -122.11605 3268 ft 158 kts 285°
2026-05-06 22:16 37.51373 -122.13304 2930 ft 158 kts 302°
2026-05-06 22:17 37.52052 -122.14370 2688 ft 157 kts 313°
2026-05-06 22:17 37.52757 -122.15430 2440 ft 157 kts 307°
2026-05-06 22:17 37.53331 -122.16596 2193 ft 157 kts 300°
2026-05-06 22:17 37.53838 -122.17788 1947 ft 156 kts 298°
2026-05-06 22:18 37.54338 -122.18998 1705 ft 155 kts 298°
2026-05-06 22:18 37.54832 -122.20188 1537 ft 152 kts 298°
2026-05-06 22:18 37.55327 -122.21372 1373 ft 152 kts 298°
2026-05-06 22:18 37.55813 -122.22533 1210 ft 151 kts 298°
2026-05-06 22:19 37.56305 -122.23704 1042 ft 150 kts 298°
2026-05-06 22:19 37.56796 -122.24870 876 ft 149 kts 298°
2026-05-06 22:19 37.57280 -122.26020 722 ft 148 kts 298°
2026-05-06 22:19 37.57750 -122.27136 589 ft 146 kts 298°
2026-05-06 22:20 37.58218 -122.28249 505 ft 141 kts 298°
2026-05-06 22:20 37.58672 -122.29328 436 ft 136 kts 298°
2026-05-06 22:20 37.59105 -122.30358 379 ft 131 kts 298°
2026-05-06 22:20 37.59525 -122.31357 315 ft 127 kts 298°
2026-05-06 22:21 37.59933 -122.32328 305 ft 129 kts 298°
2026-05-06 22:21 37.60379 -122.33389 455 ft 142 kts 298°
2026-05-06 22:21 37.60852 -122.34514 481 ft 146 kts 298°
2026-05-06 22:21 37.61294 -122.35566 182 ft 124 kts 298°
2026-05-06 22:22 37.61641 -122.36392 23 ft 80 kts 298°
2026-05-06 22:22 37.61787 -122.36742 22 ft 21 kts 297°
2026-05-06 22:22 37.61843 -122.36878 22 ft 12 kts 297°
2026-05-06 22:22 37.61873 -122.36950 22 ft 7 kts 297°
2026-05-06 22:23 37.61887 -122.36986 22 ft 2 kts 296°
2026-05-06 22:23 37.61889 -122.36991 22 ft 0 kts 295°
2026-05-06 22:23 37.61892 -122.36999 22 ft 2 kts 295°
2026-05-06 22:24 37.61899 -122.37023 22 ft 3 kts 282°
2026-05-06 22:24 37.61893 -122.37064 22 ft 7 kts 239°
2026-05-06 22:24 37.61868 -122.37088 22 ft 3 kts 212°
2026-05-06 22:24 37.61849 -122.37103 22 ft 5 kts 211°
2026-05-06 22:25 37.61825 -122.37120 22 ft 0 kts 208°
2026-05-06 22:26 37.61824 -122.37120 22 ft 1 kts 208°
2026-05-06 22:26 37.61819 -122.37124 22 ft 0 kts 208°
2026-05-06 22:27 37.61818 -122.37124 22 ft 1 kts 208°
2026-05-06 22:27 37.61791 -122.37143 22 ft 5 kts 207°
2026-05-06 22:27 37.61758 -122.37164 22 ft 6 kts 207°
2026-05-06 22:27 37.61716 -122.37192 22 ft 7 kts 207°
2026-05-06 22:28 37.61672 -122.37222 22 ft 7 kts 208°
2026-05-06 22:28 37.61643 -122.37241 22 ft 7 kts 208°
2026-05-06 22:28 37.61591 -122.37276 22 ft 6 kts 208°
2026-05-06 22:28 37.61556 -122.37300 22 ft 6 kts 208°
2026-05-06 22:29 37.61522 -122.37322 22 ft 5 kts 208°
2026-05-06 22:29 37.61500 -122.37337 22 ft 5 kts 208°
2026-05-06 22:29 37.61457 -122.37366 22 ft 5 kts 208°
2026-05-06 22:29 37.61424 -122.37388 22 ft 5 kts 208°
2026-05-06 22:30 37.61392 -122.37410 22 ft 5 kts 208°
2026-05-06 22:30 37.61360 -122.37432 22 ft 5 kts 208°
2026-05-06 22:30 37.61328 -122.37453 22 ft 5 kts 208°
2026-05-06 22:30 37.61300 -122.37472 22 ft 4 kts 208°
2026-05-06 22:31 37.61273 -122.37490 22 ft 5 kts 208°
2026-05-06 22:31 37.61240 -122.37513 22 ft 6 kts 208°
2026-05-06 22:31 37.61216 -122.37528 22 ft 6 kts 208°
2026-05-06 22:31 37.61181 -122.37552 22 ft 6 kts 207°
2026-05-06 22:32 37.61147 -122.37574 22 ft 6 kts 207°
2026-05-06 22:32 37.61111 -122.37598 22 ft 6 kts 208°
2026-05-06 22:32 37.61072 -122.37624 22 ft 7 kts 208°
2026-05-06 22:32 37.61029 -122.37652 22 ft 7 kts 208°
2026-05-06 22:33 37.60991 -122.37678 22 ft 7 kts 208°
2026-05-06 22:33 37.60929 -122.37719 22 ft 7 kts 208°
2026-05-06 22:33 37.60899 -122.37739 22 ft 7 kts 208°
2026-05-06 22:33 37.60854 -122.37769 22 ft 7 kts 208°
2026-05-06 22:34 37.60795 -122.37809 22 ft 7 kts 208°
2026-05-06 22:34 37.60765 -122.37829 22 ft 7 kts 208°
2026-05-06 22:34 37.60719 -122.37859 22 ft 7 kts 208°
2026-05-06 22:34 37.60658 -122.37900 22 ft 8 kts 208°
2026-05-06 22:35 37.60624 -122.37923 22 ft 9 kts 208°
2026-05-06 22:35 37.60545 -122.37978 22 ft 9 kts 217°
2026-05-06 22:35 37.60526 -122.38015 22 ft 8 kts 246°
2026-05-06 22:35 37.60511 -122.38098 22 ft 10 kts 259°
2026-05-06 22:36 37.60511 -122.38199 22 ft 13 kts 289°
2026-05-06 22:36 37.60555 -122.38303 22 ft 13 kts 309°
2026-05-06 22:36 37.60608 -122.38383 22 ft 13 kts 309°
2026-05-06 22:36 37.60661 -122.38459 22 ft 11 kts 322°
2026-05-06 22:37 37.60730 -122.38488 22 ft 8 kts 352°
2026-05-06 22:37 37.60777 -122.38512 22 ft 6 kts 314°
2026-05-06 22:37 37.60826 -122.38599 22 ft 15 kts 301°
2026-05-06 22:37 37.60869 -122.38690 22 ft 12 kts 300°
2026-05-06 22:38 37.60914 -122.38787 22 ft 12 kts 300°
2026-05-06 22:38 37.60947 -122.38858 22 ft 10 kts 300°
2026-05-06 22:38 37.60977 -122.38910 22 ft 2 kts 324°
2026-05-06 22:38 37.60978 -122.38911 22 ft 0 kts 326°
2026-05-06 22:39 37.60982 -122.38914 22 ft 2 kts 330°
2026-05-06 22:39 37.61003 -122.38920 22 ft 5 kts 358°
2026-05-06 22:39 37.61037 -122.38911 22 ft 4 kts 19°
2026-05-06 22:40 37.61069 -122.38894 22 ft 7 kts 26°
2026-05-06 22:40 37.61106 -122.38871 22 ft 7 kts 25°
2026-05-06 22:40 37.61129 -122.38867 22 ft 2 kts 351°
2026-05-06 22:40 37.61149 -122.38883 22 ft 5 kts 317°
2026-05-06 22:41 37.61161 -122.38902 22 ft 0 kts 303°
2026-05-06 22:41 37.61161 -122.38903 22 ft 1 kts 303°
2026-05-06 22:41 37.61166 -122.38911 22 ft 2 kts 303°
2026-05-06 22:42 37.61168 -122.38916 22 ft 1 kts 302°
2026-05-06 22:42 37.61171 -122.38923 22 ft 1 kts 300°
2026-05-06 22:42 37.61174 -122.38928 22 ft 0 kts 300°